TimeCST,TemperatureF,Dew PointF,Humidity,Sea Level PressureIn,VisibilityMPH,Wind Direction,Wind SpeedMPH,Gust SpeedMPH,PrecipitationIn,Events,Conditions,WindDirDegrees,DateUTC
12:13 AM,37.4,26.4,65,30.24,10.0,SSE,10.4,17.3,N/A,,Clear,160,2012-11-17 06:13:00
12:33 AM,37.0,26.6,66,30.23,10.0,SSE,11.5,17.3,N/A,,Clear,160,2012-11-17 06:33:00
12:53 AM,36.5,27.1,69,30.23,10.0,SSE,10.4,17.3,N/A,,Clear,160,2012-11-17 06:53:00
1:13 AM,36.7,27.5,69,30.22,10.0,SSE,12.7,17.3,N/A,,Clear,160,2012-11-17 07:13:00
1:33 AM,36.7,28.0,71,30.21,10.0,SSE,12.7,18.4,N/A,,Clear,160,2012-11-17 07:33:00
1:53 AM,36.5,28.4,72,30.21,10.0,SSE,11.5,-,N/A,,Clear,160,2012-11-17 07:53:00
2:14 AM,36.7,28.4,72,30.21,10.0,SSE,11.5,-,N/A,,Clear,160,2012-11-17 08:14:00
2:33 AM,36.9,28.9,73,30.21,10.0,SSE,13.8,-,N/A,,Clear,160,2012-11-17 08:33:00
2:53 AM,37.4,29.3,73,30.21,10.0,SSE,11.5,16.1,N/A,,Clear,160,2012-11-17 08:53:00
3:13 AM,36.9,29.3,74,30.20,10.0,SSE,9.2,-,N/A,,Clear,160,2012-11-17 09:13:00
3:33 AM,36.9,29.7,75,30.20,10.0,SSE,10.4,-,N/A,,Clear,160,2012-11-17 09:33:00
3:53 AM,37.0,29.8,75,30.19,10.0,SSE,11.5,16.1,N/A,,Clear,160,2012-11-17 09:53:00
4:13 AM,37.2,30.0,75,30.19,10.0,SSE,12.7,-,N/A,,Clear,160,2012-11-17 10:13:00
4:34 AM,37.0,30.2,76,30.18,10.0,South,11.5,16.1,N/A,,Clear,170,2012-11-17 10:34:00
4:53 AM,36.9,30.4,77,30.18,10.0,SSE,11.5,-,N/A,,Clear,160,2012-11-17 10:53:00
5:13 AM,36.7,30.4,78,30.18,10.0,SSE,11.5,18.4,N/A,,Clear,160,2012-11-17 11:13:00
5:34 AM,36.3,30.6,80,30.18,10.0,SSE,11.5,-,N/A,,Clear,160,2012-11-17 11:34:00
5:54 AM,35.8,30.6,81,30.18,10.0,SSE,10.4,-,N/A,,Clear,160,2012-11-17 11:54:00
6:13 AM,35.8,30.7,82,30.18,10.0,SSE,10.4,-,N/A,,Clear,160,2012-11-17 12:13:00
6:33 AM,36.1,30.9,81,30.18,10.0,SSE,12.7,-,N/A,,Clear,160,2012-11-17 12:33:00
6:54 AM,36.5,31.1,81,30.18,10.0,SSE,12.7,18.4,N/A,,Clear,160,2012-11-17 12:54:00
7:13 AM,37.0,31.6,81,30.18,10.0,SSE,13.8,18.4,N/A,,Clear,160,2012-11-17 13:13:00
7:33 AM,37.4,31.8,80,30.18,10.0,SSE,13.8,-,N/A,,Clear,160,2012-11-17 13:33:00
7:53 AM,38.3,32.0,78,30.18,10.0,SSE,12.7,-,N/A,,Clear,160,2012-11-17 13:53:00
8:13 AM,39.0,32.0,76,30.18,10.0,SSE,13.8,18.4,N/A,,Clear,160,2012-11-17 14:13:00
8:33 AM,39.9,32.0,73,30.19,10.0,South,12.7,18.4,N/A,,Clear,170,2012-11-17 14:33:00
8:54 AM,41.0,32.2,71,30.19,10.0,SSE,13.8,19.6,N/A,,Clear,160,2012-11-17 14:54:00
9:13 AM,41.7,32.2,69,30.19,10.0,South,13.8,20.7,N/A,,Clear,170,2012-11-17 15:13:00
9:33 AM,42.8,32.4,67,30.19,10.0,SSE,17.3,21.9,N/A,,Clear,160,2012-11-17 15:33:00
9:54 AM,44.1,32.4,63,30.19,10.0,South,15.0,24.2,N/A,,Clear,170,2012-11-17 15:54:00
10:13 AM,45.5,32.7,61,30.19,10.0,South,13.8,19.6,N/A,,Clear,170,2012-11-17 16:13:00
10:33 AM,45.9,32.9,61,30.19,10.0,South,13.8,20.7,N/A,,Clear,170,2012-11-17 16:33:00
10:53 AM,47.3,33.1,58,30.20,10.0,South,15.0,23.0,N/A,,Clear,180,2012-11-17 16:53:00
11:14 AM,49.5,33.8,55,30.19,10.0,South,12.7,20.7,N/A,,Clear,180,2012-11-17 17:14:00
11:33 AM,49.5,32.9,53,30.18,10.0,SSE,16.1,25.3,N/A,,Clear,160,2012-11-17 17:33:00
11:53 AM,50.0,33.1,52,30.18,10.0,South,11.5,-,N/A,,Clear,170,2012-11-17 17:53:00
12:13 PM,50.0,33.3,53,30.18,10.0,South,13.8,24.2,N/A,,Clear,170,2012-11-17 18:13:00
12:33 PM,49.5,33.4,54,30.17,10.0,SSE,11.5,19.6,N/A,,Clear,160,2012-11-17 18:33:00
12:54 PM,50.9,33.4,51,30.16,10.0,SSE,16.1,19.6,N/A,,Clear,160,2012-11-17 18:54:00
1:13 PM,51.1,33.4,51,30.16,10.0,SSE,12.7,18.4,N/A,,Clear,160,2012-11-17 19:13:00
1:34 PM,51.8,34.2,51,30.15,10.0,SSE,12.7,18.4,N/A,,Scattered Clouds,160,2012-11-17 19:34:00
1:53 PM,52.0,34.2,51,30.14,10.0,SSE,11.5,-,N/A,,Clear,150,2012-11-17 19:53:00
2:13 PM,52.7,34.7,50,30.13,10.0,SSE,11.5,17.3,N/A,,Clear,150,2012-11-17 20:13:00
2:33 PM,54.7,34.5,47,30.13,10.0,SSE,15.0,20.7,N/A,,Clear,160,2012-11-17 20:33:00
2:53 PM,53.6,33.8,47,30.13,10.0,SSE,12.7,19.6,N/A,,Clear,150,2012-11-17 20:53:00
3:14 PM,53.6,34.7,49,30.12,10.0,SE,13.8,18.4,N/A,,Clear,140,2012-11-17 21:14:00
3:33 PM,52.7,34.5,50,30.11,10.0,SSE,13.8,20.7,N/A,,Clear,150,2012-11-17 21:33:00
3:54 PM,52.2,34.9,52,30.11,10.0,SE,12.7,18.4,N/A,,Clear,140,2012-11-17 21:54:00
4:13 PM,52.3,34.9,51,30.11,10.0,SE,12.7,18.4,N/A,,Clear,140,2012-11-17 22:13:00
4:34 PM,52.2,34.7,51,30.11,10.0,SE,11.5,17.3,N/A,,Clear,140,2012-11-17 22:34:00
4:53 PM,51.8,34.7,52,30.11,10.0,SSE,12.7,17.3,N/A,,Clear,150,2012-11-17 22:53:00
5:13 PM,51.4,34.7,53,30.11,10.0,SE,10.4,16.1,N/A,,Clear,140,2012-11-17 23:13:00
5:34 PM,51.4,34.3,52,30.12,10.0,SSE,10.4,-,N/A,,Clear,150,2012-11-17 23:34:00
5:53 PM,51.4,34.2,52,30.13,10.0,SSE,8.1,-,N/A,,Clear,150,2012-11-17 23:53:00
6:13 PM,50.9,34.2,53,30.13,10.0,SSE,9.2,-,N/A,,Clear,150,2012-11-18 00:13:00
6:34 PM,50.0,34.3,55,30.13,10.0,SE,8.1,-,N/A,,Clear,140,2012-11-18 00:34:00
6:53 PM,50.0,34.2,55,30.14,10.0,SSE,8.1,-,N/A,,Clear,150,2012-11-18 00:53:00
7:13 PM,49.8,34.0,55,30.13,10.0,SE,8.1,-,N/A,,Clear,140,2012-11-18 01:13:00
7:34 PM,49.1,34.3,57,30.13,10.0,SE,9.2,-,N/A,,Clear,140,2012-11-18 01:34:00
7:54 PM,48.7,34.3,58,30.13,10.0,SE,10.4,-,N/A,,Clear,140,2012-11-18 01:54:00
8:13 PM,48.6,34.3,58,30.13,10.0,SE,10.4,-,N/A,,Clear,140,2012-11-18 02:13:00
8:33 PM,48.2,34.3,59,30.13,10.0,SSE,9.2,-,N/A,,Clear,150,2012-11-18 02:33:00
8:54 PM,48.2,34.0,58,30.13,10.0,SSE,9.2,-,N/A,,Clear,150,2012-11-18 02:54:00
9:13 PM,48.2,33.8,58,30.13,10.0,SSE,10.4,-,N/A,,Clear,150,2012-11-18 03:13:00
9:33 PM,48.4,33.6,57,30.13,10.0,SSE,10.4,-,N/A,,Clear,160,2012-11-18 03:33:00
9:54 PM,48.2,33.3,56,30.12,10.0,SSE,11.5,16.1,N/A,,Clear,150,2012-11-18 03:54:00
10:14 PM,47.5,33.4,58,30.12,10.0,SE,9.2,17.3,N/A,,Clear,140,2012-11-18 04:14:00
10:33 PM,47.3,33.4,59,30.12,10.0,SSE,10.4,-,N/A,,Clear,150,2012-11-18 04:33:00
10:53 PM,46.8,33.4,60,30.12,10.0,SSE,11.5,16.1,N/A,,Clear,150,2012-11-18 04:53:00
11:14 PM,46.6,33.3,60,30.12,10.0,SSE,10.4,16.1,N/A,,Clear,150,2012-11-18 05:14:00
11:33 PM,46.0,33.1,61,30.11,10.0,SSE,12.7,18.4,N/A,,Clear,150,2012-11-18 05:33:00
11:54 PM,45.9,33.1,61,30.11,10.0,SE,10.4,16.1,N/A,,Clear,140,2012-11-18 05:54:00